Flag for United Arab Emirates Weather past 2 weeks in Dubai, Dubai, United Arab Emirates

Now
90 °F

Passing clouds.


Feels Like: 86 °F
Forecast: 91 / 104 °F
Wind: 8 mph from Northeast

Location: Dubai International Airport

Current Time: May 30, 2015 at 4:12:39 AM

Latest Report: May 30, 2015 at 4:00 AM


Visibility: N/A

Pressure: 29.68 "Hg

Humidity: 21%

Dew point: 45 °F

Location of DubaiLocation

Historic Weather in Dubai — Graph

°F

Dubai temperature yesterday

Maximum temperature yesterday: 102 °F (at 1:00 PM)
Minimum temperature yesterday: 79 °F (at 5:00 AM)
Average temperature yesterday: 90 °F

Past Weeks' High & Low Weather Summary

 TemperatureHumidityPressure
High108 °F (May 23, 12:00 PM)84% (May 16, 5:00 AM)29.83 "Hg (May 16, 5:00 AM)
Low77 °F (May 19, 4:00 AM)8% (May 22, 12:00 PM)29.59 "Hg (May 28, 5:00 PM)
Average91 °F40%29.68 "Hg
* Reported May 15 3:00 AM — May 30 3:00 AM, Dubai, Weather by CustomWeather, © 2015

Note: Actual official high and low records may vary slightly from our data, if they occured in-between our weather recording intervals... More about our weather records

Advertising

Dubai weather history for previous 24 hours

 ConditionsComfort  
Time TempWeatherWind HumidityBarometerVisibility
3:00 AM
Sat, May 30
90 °FPassing clouds.10 mph29%29.65 "HgN/A
2:00 AM88 °FPassing clouds.5 mph35%29.65 "HgN/A
1:00 AM90 °FClear.9 mph36%29.68 "Hg10 mi
12:00 AM90 °FClear.6 mph38%29.68 "Hg10 mi
11:00 PM
Fri, May 29
90 °FPassing clouds.5 mph43%29.68 "HgN/A
10:00 PM90 °FClear.7 mph49%29.68 "Hg10 mi
9:00 PM91 °FClear.8 mph44%29.65 "Hg10 mi
8:00 PM93 °FPassing clouds.6 mph32%29.65 "HgN/A
7:00 PM91 °FSunny.8 mph44%29.62 "Hg10 mi
6:00 PM93 °FSunny.12 mph41%29.62 "Hg10 mi
5:00 PM95 °FPassing clouds.13 mph34%29.62 "HgN/A
4:00 PM99 °FPassing clouds.14 mph31%29.62 "HgN/A
3:00 PM99 °FPassing clouds.12 mph29%29.62 "HgN/A
2:00 PM100 °FPassing clouds.10 mph29%29.62 "HgN/A
1:00 PM102 °FPassing clouds.6 mph11%29.65 "HgN/A
12:00 PM99 °FPassing clouds.7 mph14%29.68 "HgN/A
11:00 AM97 °FPassing clouds.8 mph16%29.68 "HgN/A
10:00 AM91 °FPassing clouds.8 mph28%29.68 "HgN/A
9:00 AM90 °FPassing clouds.7 mph29%29.68 "HgN/A
8:00 AM86 °FPassing clouds.6 mph33%29.65 "HgN/A
7:00 AM81 °FClear.6 mph42%29.65 "Hg5 mi
6:00 AM79 °FClear.5 mph48%29.62 "Hg5 mi
5:00 AM79 °FPassing clouds.5 mph51%29.62 "HgN/A
4:00 AM81 °FPassing clouds.7 mph48%29.59 "HgN/A
Weather by CustomWeather, © 2015

See weather overviewHow to use our weather pages